CAPE
663 1553 1489 1684 1637 1653 1834 1641 1515 1374 1209 1099 999 1142 1377 1240 1181 1301 1415 1323 1382 1374 1321 1155 935 848 667 1418 1616 1620 1680 1699 1714 1553 1563 1526 1452 2198 2234 2196 2242 2320 2652
907 1636 1543 1740 1682 1600 1580 1765 1711 1868 1303 1153 1131 1343 1489 1645 1590 1414 1264 1364 1407 1301 1419 1355 1322 1336 1247 1362 1419 1463 1610 1494 1253 1341 1409 1911 1969 1961 2031 1906 1938 2382 2618
1105 1499 1254 1656 1830 1533 1609 1768 1761 1714 1705 1822 1766 1736 1663 1628 1477 1460 1496 1290 1342 1414 1257 1163 1215 1079 844 1243 1570 1216 1412 1234 1118 980 1161 1257 1686 1769 1944 2088 2410 2321 2488
1348 1496 1262 1517 1758 1563 1417 1513 1734 1653 1761 1616 1592 1557 1692 1633 1608 1587 1479 1239 1360 1115 1266 1328 1253 1218 905 555 650 1290 1223 1010 890 767 985 1183 1341 1821 1903 2203 2329 2224 2196
1203 1262 1368 1535 1548 1510 1095 1393 1754 1660 1686 1494 1418 1606 1664 1671 1317 1238 1635 1145 1290 1345 1351 1166 1200 1086 886 877 761 833 838 641 476 517 947 1165 1063 1661 1769 1880 1486 1877 1734
1165 1213 1361 1459 1427 1134 1177 1418 1527 1646 1484 1516 1287 1550 1591 1337 841 1132 1298 1488 1422 1283 1120 1118 1094 1032 869 989 984 927 803 753 701 623 491 918 1020 1584 1773 1893 1876 1645 1403
1149 1313 1359 1343 1361 1094 1357 1589 1361 1140 1452 1445 1500 1666 1305 837 1121 1493 1485 1415 1281 1230 1162 1187 1170 958 834 860 929 902 1018 1362 1543 1360 746 452 810 1393 1590 1705 1663 1746 1761
881 1150 1174 1309 1381 1573 1285 1457 1356 1158 1487 1158 1255 1346 1128 1166 1531 1373 1283 1312 1323 1138 990 1071 1107 990 946 927 1028 721 592 198 936 1492 1326 758 533 1475 1442 1395 1481 1500 1216
895 986 1112 1086 1650 1394 1320 1268 1385 1008 1097 1411 1097 1256 1358 1411 1219 1206 1342 1272 1055 848 720 666 778 841 835 833 970 1001 348 365 271 908 943 884 421 1045 1626 1626 1547 1489 1233
711 728 869 1076 885 1134 988 1332 1418 1415 1218 782 838 909 1052 1159 1204 1188 1040 715 684 714 732 725 741 888 880 764 976 1147 806 413 135 568 800 915 518 786 1128 1368 1385 1458 1436
657 579 598 773 1059 1100 1128 1064 1196 1283 1042 425 468 542 544 455 613 732 562 487 726 814 859 920 989 722 817 1253 809 871 1545 1127 444 343 925 512 558 990 1106 1373 1520 1647 1636
210 394 356 427 600 689 827 851 867 1198 582 150 251 372 380 328 452 383 287 302 503 862 1173 1440 538 511 610 935 812 577 1676 1498 870 524 513 416 706 964 975 1582 1588 1637 1724
97 162 200 341 533 325 426 699 805 888 250 255 460 581 315 195 214 208 200 267 741 24 118 394 97 261 476 792 787 1027 1388 1452 1246 1070 881 171 670 922 1151 1476 1513 1488 1193
0 0 0 134 372 259 326 519 625 466 118 114 106 321 141 87 101 209 351 567 169 5 33 44 516 419 1122 1380 1197 1224 1305 1325 1284 1198 1046 620 483 935 1208 1042 1292 1400 1245
0 0 0 7 199 259 273 330 316 56 0 15 112 141 175 147 168 396 466 270 355 219 40 65 91 274 752 1356 1168 1159 958 1158 1206 1152 1208 813 878 689 968 1026 1533 1538 1356
0 0 0 0 0 41 0 28 0 0 225 288 339 325 559 616 591 476 311 67 40 54 91 137 251 373 622 778 802 1220 1047 1033 1118 1230 1239 1222 880 1004 921 1054 1473 1840 1722
0 0 0 0 0 0 0 0 0 3 155 253 325 362 733 1085 1084 768 530 161 124 47 158 384 579 770 685 596 789 1030 889 900 620 662 733 988 1185 993 1030 1028 1084 1303 1514
0 0 0 0 0 0 0 0 0 0 3 168 509 574 167 421 736 563 215 82 69 107 491 676 1030 698 669 1088 960 1057 563 596 564 574 734 1035 1137 1082 1141 951 917 1025 1148
0 0 0 0 0 0 0 0 0 0 63 238 487 1005 998 339 302 348 351 364 152 211 626 860 1338 1081 1240 971 470 680 583 366 173 340 258 166 636 935 1006 871 731 1021 906
0 0 0 0 0 0 0 0 0 0 28 88 173 424 1377 1317 392 112 352 815 701 296 673 1124 1387 1335 843 477 226 265 525 5 0 0 0 0 0 144 905 1162 1377 1771 1290
0 0 0 0 0 0 0 0 0 35 459 435 300 391 864 1414 786 352 970 1299 1236 787 749 459 349 265 478 621 296 243 457 0 0 0 0 19 64 415 845 1529 1465 1899 1712
0 1 2 0 0 0 0 0 156 461 571 611 689 640 683 951 1318 1149 1196 1417 1374 1177 398 132 204 108 144 680 364 371 303 33 0 0 8 50 128 116 65 59 160 463 766
0 3 3 5 0 0 0 0 122 335 474 576 717 831 865 670 531 824 1006 929 403 278 181 143 110 144 194 280 330 136 78 105 0 0 0 0 0 0 0 0 0 2 8
0 11 20 19 64 24 58 12 76 281 475 734 890 1093 1020 1065 1367 1040 788 592 223 265 129 156 490 720 461 215 24 32 66 111 0 0 0 0 0 0 0 0 0 0 0
0 4 14 33 142 174 180 94 113 335 591 997 701 581 186 124 201 109 213 338 95 103 132 66 68 85 24 86 68 0 0 0 22 0 0 0 0 0 0 0 0 0 0
0 1 0 7 73 193 137 190 261 409 469 280 438 135 19 17 6 8 7 15 86 149 80 7 0 0 0 0 0 0 0 0 0 0 0 0 0 0 0 0 0 0 0
CIN
-65 -0 -1 -0 -0 -0 -0 -0 -0 -12 -13 -15 -14 -8 -0 -0 -3 -0 -0 -0 -1 -0 -0 -2 -4 -7 -15 -1 -0 -0 -1 -1 -0 -1 -1 -4 -11 -0 -0 -0 -1 -0 -0
-58 -0 -1 -0 -0 -0 -0 -0 -0 -0 -3 -9 -10 -0 -0 -0 -0 -0 -0 -0 -0 -0 -0 -0 -0 -0 -0 -0 -0 -0 -0 -2 -17 -7 -0 -0 -1 -0 -0 -4 -2 -0 -0
-24 -0 -8 -0 -0 -0 -0 -0 -0 -0 -0 -0 -0 -0 -0 -0 -0 -0 -0 -0 -0 -0 -0 -0 -0 -0 -1 -0 -0 -1 -2 -14 -32 -44 -15 -0 -1 -1 -0 -0 -0 -0 -0
-8 -0 -4 -1 -0 -0 -1 -2 -0 -0 -0 -0 -1 -0 -0 -0 -0 -0 -0 -0 -0 -0 -0 -0 -0 -1 -16 -25 -20 -6 -8 -19 -37 -55 -24 -0 -0 -0 -0 -0 -0 -0 -0
-19 -3 -0 -2 -1 -2 -7 -2 -0 -0 -0 -1 -0 -0 -0 -0 -0 -0 -0 -0 -0 -0 -0 -1 -2 -8 -21 -17 -15 -15 -19 -35 -59 -48 -27 -7 -0 -0 -0 -0 -7 -1 -4
-12 -9 -3 -3 -1 -4 -1 -4 -0 -0 -0 -0 -1 -0 -0 -0 -6 -0 -0 -0 -0 -0 -5 -8 -11 -18 -29 -19 -13 -15 -20 -29 -40 -38 -46 -24 -4 -1 -0 -0 -0 -7 -20
-4 -0 -0 -3 -4 -5 -4 -0 -1 -0 -0 -0 -0 -0 -0 -9 -0 -0 -0 -0 -0 -0 -11 -18 -22 -36 -45 -39 -33 -42 -40 -13 -0 -0 -43 -44 -21 -16 -0 -0 -1 -4 -0
-17 -0 -0 -3 -1 -0 -1 -0 -0 -2 -0 -0 -0 -0 -0 -0 -0 -0 -0 -0 -2 -23 -51 -51 -49 -50 -44 -42 -33 -57 -70 -108 -24 -1 -5 -38 -59 -16 -23 -10 -0 -7 -20
-4 -6 -3 -0 -0 -0 -1 -0 -0 -2 -2 -0 -1 -0 -0 -0 -4 -7 -3 -16 -43 -69 -80 -87 -77 -67 -62 -65 -55 -57 -112 -112 -84 -39 -30 -28 -83 -36 -0 -4 -9 -4 -18
-2 -2 -0 -0 -0 -0 -0 -0 -0 -0 -0 -11 -12 -7 -8 -10 -11 -17 -35 -68 -72 -75 -85 -90 -88 -82 -78 -84 -73 -61 -88 -135 -128 -81 -54 -37 -89 -51 -30 -11 -10 -5 -3
-1 -7 -5 -0 -0 -0 -0 -0 -0 -0 -2 -49 -60 -63 -62 -60 -55 -62 -84 -110 -77 -61 -64 -80 -80 -96 -93 -67 -101 -94 -50 -58 -121 -113 -65 -127 -117 -55 -28 -11 -1 -0 -0
-67 -17 -23 -8 -2 -3 -1 -2 -1 -0 -25 -105 -91 -87 -91 -122 -96 -101 -132 -157 -115 -86 -59 -47 -131 -143 -135 -71 -78 -131 -42 -60 -91 -99 -102 -164 -142 -95 -56 -4 -2 -0 -0
-103 -68 -59 -20 -7 -15 -10 -4 -6 -11 -97 -112 -98 -88 -124 -141 -141 -132 -145 -125 -99 -262 -179 -135 -178 -155 -118 -92 -93 -81 -77 -80 -55 -63 -78 -183 -139 -118 -86 -34 -13 -2 -9
-0 -0 -0 -67 -23 -28 -25 -19 -18 -38 -133 -142 -157 -129 -170 -172 -165 -136 -118 -108 -166 -272 -244 -234 -127 -132 -68 -73 -80 -71 -68 -60 -60 -61 -73 -153 -154 -113 -96 -96 -55 -33 -26
-0 -0 -0 -16 -35 -29 -69 -66 -76 -88 -0 -70 -176 -182 -167 -159 -143 -120 -111 -134 -128 -144 -203 -216 -202 -147 -109 -66 -59 -62 -54 -49 -61 -84 -93 -151 -143 -149 -116 -103 -54 -45 -44
-0 -0 -0 -0 -0 -15 -0 -86 -0 -0 -137 -127 -124 -124 -128 -120 -118 -114 -126 -157 -167 -162 -157 -160 -151 -126 -94 -89 -59 -54 -58 -47 -59 -70 -66 -86 -149 -139 -134 -116 -73 -41 -35
-0 -0 -0 -0 -0 -0 -0 -0 -0 -9 -124 -133 -126 -136 -107 -87 -88 -104 -115 -149 -148 -186 -166 -146 -131 -107 -79 -80 -53 -44 -54 -66 -71 -81 -84 -72 -84 -153 -138 -119 -106 -85 -78
-0 -0 -0 -0 -0 -0 -0 -0 -0 -0 -18 -101 -78 -91 -170 -143 -125 -123 -117 -136 -173 -169 -122 -113 -87 -71 -53 -42 -37 -47 -70 -63 -68 -67 -68 -75 -87 -77 -128 -145 -131 -121 -91
-0 -0 -0 -0 -0 -0 -0 -0 -0 -0 -120 -104 -88 -65 -78 -133 -134 -138 -113 -103 -164 -138 -102 -89 -57 -65 -45 -45 -32 -37 -58 -65 -92 -72 -129 -158 -119 -116 -80 -120 -142 -114 -105
-0 -0 -0 -0 -0 -0 -0 -0 -0 -0 -137 -141 -121 -83 -54 -60 -102 -150 -96 -91 -102 -115 -74 -56 -49 -49 -54 -65 -54 -47 -47 -8 -0 -0 -0 -0 -0 -168 -94 -89 -66 -41 -69
-0 -0 -0 -0 -0 -0 -0 -0 -0 -120 -67 -83 -104 -92 -64 -60 -76 -97 -62 -54 -63 -74 -72 -93 -82 -75 -40 -46 -43 -49 -44 -0 -0 -0 -0 -237 -222 -138 -102 -69 -67 -15 -6
-0 -67 -144 -0 -0 -0 -0 -0 -114 -67 -59 -56 -59 -74 -76 -69 -67 -65 -66 -59 -63 -58 -105 -111 -45 -54 -54 -32 -14 -21 -6 -17 -0 -0 -125 -188 -146 -170 -248 -259 -178 -97 -28
-0 -157 -163 -149 -0 -0 -0 -0 -127 -79 -67 -51 -53 -53 -83 -94 -98 -87 -97 -101 -127 -89 -68 -57 -39 -43 -27 -51 -53 -42 -19 -11 -0 -0 -0 -0 -0 -0 -0 -0 -0 -142 -90
-0 -191 -274 -201 -133 -151 -160 -137 -134 -48 -31 -28 -30 -67 -91 -104 -66 -82 -85 -75 -68 -39 -27 -20 -6 -19 -38 -39 -134 -126 -85 -48 -0 -0 -0 -0 -0 -0 -0 -0 -0 -0 -0
-0 -178 -310 -236 -160 -149 -149 -125 -100 -60 -37 -43 -35 -102 -160 -180 -170 -168 -106 -48 -77 -65 -30 -20 -92 -85 -98 -73 -79 -0 -0 -0 -57 -0 -0 -0 -0 -0 -0 -0 -0 -0 -0
-0 -115 -0 -295 -224 -186 -186 -125 -95 -54 -39 -30 -58 -107 -151 -129 -112 -136 -119 -84 -52 -45 -74 -105 -0 -0 -0 -0 -0 -0 -0 -0 -0 -0 -0 -0 -0 -0 -0 -0 -0 -0 -0
Wind_Speed
27 22 26 25 25 24 25 24 25 25 25 25 25 26 28 28 28 27 27 26 26 24 25 26 26 25 24 23 21 22 22 23 25 24 18 18 20 18 13 11 9 8 10
24 25 26 24 24 24 25 23 25 26 26 27 28 28 28 28 28 28 28 28 28 27 28 28 28 26 25 24 24 23 23 25 25 24 24 21 19 18 15 12 7 9 11
25 26 25 25 25 25 25 24 27 27 27 28 29 29 29 29 29 29 29 28 28 28 28 28 29 28 27 25 25 25 24 23 25 24 24 23 21 18 15 14 11 11 10
26 26 26 25 25 25 26 26 28 28 28 28 29 29 29 30 30 29 29 29 29 29 29 29 28 28 28 27 27 26 24 23 23 25 24 23 23 22 19 11 10 11 9
26 26 26 24 25 26 27 28 28 28 29 29 29 29 30 29 30 29 29 29 29 28 28 28 28 28 28 26 24 24 23 23 22 21 23 23 23 23 22 20 16 12 12
26 26 26 25 27 27 28 26 27 28 28 28 28 29 29 30 29 29 29 29 28 28 27 27 27 26 26 25 25 23 21 21 21 21 21 22 22 24 24 25 22 20 15
27 26 25 26 26 27 27 26 28 28 28 27 28 29 29 30 30 29 29 28 27 27 27 26 26 25 24 23 20 19 19 18 18 19 21 21 22 23 23 23 24 23 22
24 25 26 27 27 27 27 27 27 26 27 28 28 28 29 29 29 29 29 28 27 27 25 24 24 23 22 21 20 19 19 18 18 18 19 20 21 22 23 23 22 23 23
22 26 28 28 28 27 26 27 26 27 27 27 28 28 29 29 29 28 28 27 26 25 23 22 21 20 19 19 18 18 19 17 18 20 19 20 21 21 21 21 21 21 21
26 27 26 27 27 28 27 28 27 28 27 26 27 28 29 29 28 27 26 25 23 22 21 19 18 18 18 17 17 17 17 17 18 20 20 20 21 20 20 20 20 20 20
27 28 28 28 28 27 28 29 28 28 27 28 28 28 29 28 28 26 24 23 21 19 18 16 15 17 16 15 15 15 15 16 18 19 19 19 20 19 20 19 19 19 20
28 28 28 28 28 29 29 29 29 28 27 28 28 28 28 28 26 25 23 21 19 17 16 16 15 15 14 15 15 15 15 16 16 17 17 18 19 19 18 18 18 18 18
28 29 29 29 29 29 29 30 30 28 28 28 29 28 27 26 25 24 21 21 19 17 16 15 14 15 15 16 15 16 15 15 15 15 16 17 18 18 17 17 17 16 17
28 29 29 29 30 30 30 31 30 29 29 29 29 28 27 26 24 24 21 21 20 17 15 14 14 14 15 15 15 15 15 15 14 14 14 15 16 17 17 17 16 17 16
28 29 29 30 30 30 31 31 30 30 30 29 29 28 27 25 25 23 22 21 19 18 15 15 14 15 14 13 12 13 13 13 12 12 12 12 13 15 16 17 16 16 16
27 28 29 30 31 30 31 31 31 30 30 29 28 27 27 26 24 23 21 20 19 18 19 19 16 14 12 12 11 17 15 12 11 10 10 10 12 13 15 16 16 16 15
24 25 27 29 31 32 32 31 31 30 29 28 28 27 26 25 25 23 20 18 19 19 18 20 19 17 14 9 10 10 13 11 15 17 11 10 9 11 13 14 16 16 16
23 21 26 30 31 32 33 32 30 29 28 27 27 26 25 24 23 23 23 23 22 9 9 21 21 20 21 18 15 16 20 22 23 22 21 6 11 13 15 14 15 17 16
24 21 23 28 29 32 32 32 30 29 29 28 28 27 27 26 23 19 21 22 19 17 17 17 15 18 19 21 22 21 22 22 24 23 19 19 19 4 14 9 14 15 16
23 20 23 28 30 31 34 33 31 31 30 30 29 28 26 26 19 15 22 20 17 16 21 21 19 20 21 23 25 24 22 21 20 20 20 19 19 19 17 5 4 9 14
23 19 16 22 33 34 9 33 34 33 32 30 24 20 21 23 23 20 20 23 21 23 22 17 16 23 25 20 24 20 17 18 20 21 21 20 20 20 18 17 13 15 14
19 17 13 13 15 31 29 26 26 26 24 19 18 18 18 20 20 20 23 24 21 22 22 25 24 6 13 17 18 22 17 15 19 21 20 19 20 19 19 18 17 14 14
15 17 17 14 9 8 9 22 23 22 22 21 21 21 21 23 26 24 22 21 22 23 29 32 20 14 5 17 17 20 19 15 15 20 21 20 18 17 17 17 17 15 14
16 13 15 15 11 10 8 15 18 22 20 21 19 19 20 22 23 22 19 17 25 28 25 24 24 21 15 14 17 17 19 18 11 16 20 18 16 16 16 16 16 15 13
11 11 11 11 12 9 10 11 19 22 26 22 20 19 19 20 23 24 25 21 26 28 29 12 13 18 18 19 16 16 18 18 17 17 17 16 15 15 16 17 17 16 15
12 9 9 12 13 14 13 11 15 19 22 20 17 17 20 21 22 24 24 24 22 18 11 11 13 15 16 17 16 15 14 16 17 18 17 14 15 16 15 16 18 19 18
Wind_Direction
138 114 151 114 112 98 106 97 98 95 97 100 102 108 122 120 119 121 122 123 129 137 129 120 112 116 117 134 147 145 141 130 103 92 120 57 77 74 55 53 54 49 53
112 121 139 114 111 106 110 96 98 104 107 112 122 130 131 127 124 123 123 124 121 121 111 105 105 118 123 138 136 141 143 119 98 88 102 63 64 70 57 57 38 53 59
115 124 123 122 118 111 105 99 117 121 116 126 125 129 128 128 125 124 124 124 121 115 116 115 106 113 119 131 137 138 136 137 117 91 96 91 72 62 59 61 57 59 57
118 124 126 123 115 112 116 113 133 125 130 136 133 131 131 127 125 126 125 120 120 119 116 106 116 115 115 120 127 127 133 138 130 112 107 114 95 83 75 50 53 60 52
122 128 130 115 120 120 122 132 141 136 135 138 140 137 136 133 128 129 123 122 126 123 118 115 113 109 114 120 129 131 132 129 134 137 126 118 122 100 94 90 78 63 64
125 131 129 128 132 127 134 162 146 143 148 147 146 144 137 132 130 128 126 127 129 126 125 121 118 115 114 117 121 130 136 136 136 136 135 127 129 122 122 128 105 99 82
135 135 122 136 156 159 152 160 153 147 150 152 150 144 142 137 135 133 126 134 129 124 119 119 121 122 122 125 136 138 140 143 146 142 134 132 131 129 134 137 136 129 129
123 130 137 151 161 164 159 156 164 167 162 153 153 151 147 143 142 134 130 130 126 120 121 125 127 124 124 131 133 132 130 134 138 141 138 137 133 134 137 143 146 146 151
116 140 157 157 155 164 170 166 174 166 160 158 157 156 153 149 143 138 135 132 129 129 128 128 129 130 144 139 138 134 129 128 131 123 127 132 132 139 137 140 141 144 149
144 168 181 171 166 166 173 169 172 170 168 171 167 163 157 151 148 147 144 140 139 132 131 140 143 149 146 153 148 142 134 131 127 121 118 123 127 137 142 142 144 141 143
161 167 176 174 174 178 175 173 176 175 175 174 171 168 161 156 149 150 153 153 148 148 148 150 155 160 162 157 153 154 143 135 128 127 125 119 123 126 134 139 144 143 152
155 172 180 178 175 172 171 175 185 183 184 180 176 172 170 159 156 156 152 164 168 171 170 166 161 162 160 152 143 138 134 134 141 132 132 123 127 129 133 135 136 139 150
164 171 175 176 176 176 176 176 183 187 185 181 177 173 171 165 163 168 158 180 184 182 165 160 173 149 144 140 134 127 122 126 131 133 132 136 136 139 139 139 139 139 143
167 174 177 177 172 174 177 176 179 181 181 181 177 176 176 171 168 176 170 178 187 187 197 171 166 163 148 134 123 116 127 114 115 124 126 132 141 150 154 148 145 148 144
168 171 174 175 177 178 177 177 182 183 187 186 180 177 178 168 184 184 191 194 191 188 199 173 175 184 178 159 159 135 107 114 114 111 118 131 141 151 159 159 153 152 157
168 166 169 178 180 190 192 187 176 172 179 187 193 183 186 185 187 187 188 189 201 211 217 210 183 168 154 141 105 11 40 87 118 116 109 123 152 158 161 162 158 156 156
148 153 159 163 173 178 184 185 184 183 181 184 187 198 199 207 206 201 191 184 200 200 209 229 224 210 195 85 60 82 36 66 28 315 175 150 145 158 160 162 170 166 165
151 141 155 172 171 173 178 184 189 202 207 210 209 204 190 193 190 212 222 227 242 49 64 247 241 243 291 332 360 352 330 295 296 313 307 3 157 165 166 168 171 179 174
164 148 150 165 167 174 177 180 187 194 199 197 204 207 205 203 189 179 241 261 288 307 319 326 340 322 320 311 298 305 317 322 302 310 334 331 325 106 171 143 170 178 177
164 155 160 173 174 175 195 196 200 204 207 223 231 239 251 256 282 298 281 294 310 316 303 305 312 316 314 305 303 298 313 323 328 328 327 332 335 327 329 47 70 156 177
173 164 157 163 193 205 166 196 218 214 223 241 264 277 277 276 279 289 293 288 298 294 300 321 331 308 305 328 311 322 332 331 330 328 326 328 326 330 334 332 340 317 310
175 175 173 170 168 225 242 250 254 257 266 277 283 287 288 288 292 295 293 294 301 303 303 289 289 157 341 337 332 311 324 336 336 330 327 329 330 331 334 335 337 332 309
185 183 183 187 198 208 248 263 267 273 275 276 279 287 288 287 288 291 296 298 298 298 289 283 219 197 140 331 334 320 319 334 335 332 333 332 334 342 346 343 344 338 334
191 190 189 188 198 205 226 269 272 272 278 281 285 289 292 294 296 298 303 302 300 289 284 229 229 245 338 339 336 334 318 317 348 337 334 337 343 341 346 348 347 343 334
194 197 200 201 195 224 243 259 274 276 275 282 287 290 296 300 302 302 301 302 295 285 288 320 329 323 326 326 329 327 324 326 326 324 328 337 353 342 337 338 339 342 336
271 247 242 234 254 260 261 260 276 281 287 290 295 298 297 300 303 300 302 297 301 304 326 337 336 335 338 333 327 325 328 326 329 327 323 326 328 331 338 338 332 328 329